Location: *
(48.7358°N, 0.3111°E)
Time: 04:11:00
(UTC+00:00)

Daily predictions for brighter satellites

Satellite Brightness Start Highest point End
(mag) Time Altitude Azimuth Time Altitude Azimuth Time Altitude Azimuth
ATLAS 3B R/B 4.3 02:03:16 28° ENE 02:03:16 28° ENE 02:06:52 10° E
Cosmos 2333 Rocket 4.4 02:09:34 21° ENE 02:09:34 21° ENE 02:11:44 10° NE
CENTAUR R/B 3.7 02:09:11 50° NE 02:09:11 50° NE 02:17:05 10° ESE
Cosmos 2219 Rocket 4.2 02:21:45 24° ENE 02:21:45 24° ENE 02:24:10 10° NE
ATLAS 2AS CENTAUR R/B 3.8 02:33:41 44° ESE 02:33:52 45° ESE 02:41:22 10° NE
Cosmos 2237 Rocket 4.2 02:33:53 21° ESE 02:33:57 21° E 02:38:07 10° NE
ADEOS II 4.1 02:40:16 10° NNE 02:42:05 22° NNE 02:42:05 22° NNE
Cosmos 2322 Rocket 4.3 02:49:25 18° N 02:49:25 18° N 02:51:10 10° NNE
COSMOS 2455 4.0 02:53:16 38° NNE 02:53:16 38° NNE 02:56:55 10° NNE
Cosmos 2360 Rocket 3.9 02:56:37 25° N 02:56:37 25° N 02:59:04 10° NNE
COSMOS 2428 3.8 02:59:32 41° NE 02:59:32 41° NE 03:03:12 10° NNE
USA 267 3.7 03:00:21 10° ENE 03:06:44 52° SE 03:06:48 52° SE
IDEFIX/ARIANE 42P 3.9 03:06:28 10° NNE 03:11:15 35° E 03:12:29 31° ESE
Cosmos 407 Rocket 4.3 03:23:31 44° ESE 03:23:42 44° ESE 03:28:34 10° NE
NOSS 3-2 (C) 3.9 03:25:52 68° SSW 03:25:52 68° SSW 03:33:45 10° SSE
SL-16 R/B 4.4 03:25:07 10° SSE 03:29:22 22° E 03:33:38 10° NE
Cosmos 2278 Rocket 4.0 03:40:15 18° SSE 03:40:15 18° SSE 03:41:37 10° SSE
USA 234 3.2 03:35:28 10° ESE 03:42:02 87° NNE 03:43:48 53° NW
BREEZE-M R/B 3.6 03:43:48 85° NW 03:43:55 86° N 03:52:56 10° E
NOSS 3-4 (A) 3.6 03:42:55 55° S 03:44:06 69° SE 03:50:29 10° NE
NOSS 3-4 (C) 3.6 03:42:58 54° S 03:44:13 68° SE 03:50:36 10° NE
RESURS DK-1 4.4 03:44:13 20° SE 03:45:40 25° ESE 03:49:04 10° NE
Cosmos 2228 4.5 03:42:37 10° N 03:46:35 36° ENE 03:50:30 10° SE
Cosmos 2333 Rocket 2.6 03:51:35 47° NNW 03:51:35 47° NNW 03:56:24 10° NNE
NOSS 0 Rocket 3.8 03:49:59 63° SSW 03:51:06 90° N 03:57:21 10° NNE
ARIANE 5 R/B 4.3 03:46:43 10° N 03:48:26 19° NNW 03:48:26 19° NNW
ATLAS 3B R/B 2.5 03:50:37 59° WNW 03:51:45 70° SW 03:58:33 10° SSE
Cosmos 614 Rocket 4.0 03:53:33 64° S 03:54:18 79° ESE 03:59:32 10° NNE
PSLV R/B 3.8 03:52:47 10° NNE 03:56:27 63° NE 03:56:27 63° NE
Gblst 52 Del rocket 4.0 03:56:46 70° WNW 03:57:25 87° NNE 04:03:12 10° ESE
Cosmos 1140 Rocket 3.9 03:56:21 32° S 03:58:37 60° ESE 04:03:42 10° NNE
USA 32 3.9 03:57:48 53° S 03:59:05 89° WNW 04:04:23 10° N
Cosmos 1709 Rocket 4.5 04:00:41 42° NW 04:00:41 42° NW 04:05:58 10° N
CENTAUR R/B 3.1 03:56:27 36° WNW 03:59:57 62° WSW 04:08:28 10° SSE
Cosmos 44 Rocket 3.5 04:00:26 45° NNW 04:01:42 64° NE 04:06:21 10° SE
Cosmos 2219 Rocket 2.8 04:03:30 40° NW 04:03:30 40° NW 04:08:17 10° NNE
SL-16 R/B 4.3 04:03:38 13° NNW 04:03:38 13° NNW 04:05:53 10° N
ADEOS 3.5 03:58:44 10° NNE 04:04:00 89° E 04:05:55 41° SSW
BREEZE-M DEB (TANK) 2.4 04:07:06 83° E 04:07:06 83° E 04:09:39 10° E
Cosmos 2184 Rocket 3.9 04:04:20 13° S 04:09:55 86° W 04:16:17 10° N
Nadezhda 3 Rocket 4.1 04:09:09 10° N 04:15:34 79° E 04:21:54 10° SSE
Meteor 1-4 Rocket 2.7 04:16:23 66° E 04:16:23 66° E 04:19:50 10° NNE
Cosmos 2237 Rocket 2.1 04:15:45 46° SW 04:17:26 71° WNW 04:23:10 10° NNE
Cosmos 389 Rocket 3.6 04:19:54 34° N 04:19:54 34° N 04:22:01 10° N
ERBS 3.6 04:19:30 32° N 04:19:30 32° N 04:21:52 10° NE
Meteor 1-21 4.3 04:20:26 46° W 04:21:14 50° WNW 04:26:46 10° N
CZ-2C R/B 2.9 04:18:30 10° NNE 04:23:42 64° ESE 04:28:46 10° S
Cosmos 1726 3.0 04:20:53 10° N 04:24:28 49° ENE 04:28:02 10° SSE
ADEOS II 3.9 04:21:05 10° NNW 04:23:00 16° NNW 04:23:00 16° NNW
ATLAS 2AS CENTAUR R/B 3.1 04:21:09 35° WSW 04:24:47 62° NW 04:32:43 10° NE
Cosmos 2058 Rocket 3.7 04:20:52 10° N 04:25:15 57° ENE 04:29:37 10° SSE
Cosmos 1356 3.5 04:24:29 27° N 04:26:16 77° ENE 04:29:43 10° SSE
Cosmos 2369 Rocket 3.6 04:24:02 10° NNW 04:29:13 37° NE 04:34:22 10° ESE
Cosmos 1023 Rocket 4.3 04:28:53 29° SW 04:31:30 74° WNW 04:36:39 10° NNE
Cosmos 2322 Rocket 4.4 04:31:43 10° NNW 04:32:10 10° NNW 04:32:36 10° NNW
Cosmos 1980 3.9 04:33:41 36° WSW 04:35:35 51° NW 04:41:06 10° NNE
SJ-6F 4.4 04:32:47 10° NNE 04:36:58 89° ESE 04:41:06 10° SSW
COSMOS 2455 4.2 04:36:25 21° NW 04:37:49 23° NNW 04:42:32 10° NNE
Cosmos 2074 Rocket 4.1 04:33:24 14° SSW 04:38:38 53° WNW 04:44:44 10° N
Cosmos 2360 Rocket 4.1 04:38:24 13° NW 04:39:03 14° NNW 04:41:53 10° N
COSMOS 2428 3.8 04:41:33 24° WNW 04:42:22 25° NW 04:47:03 10° NNE
SKYMED 2 4.5 04:38:22 10° SE 04:42:34 50° ENE 04:46:47 10° N
Cosmos 1953 3.9 04:45:08 20° SSW 04:45:08 20° SSW 04:46:37 10° SSW
H-2A R/B 2.5 04:40:29 10° N 04:44:36 56° WNW 04:47:22 21° SW
Cosmos 1707 3.1 04:45:26 41° W 04:45:33 41° WNW 04:49:18 10° N
Cosmos 1763 Rocket 4.1 04:41:55 10° NNW 04:47:03 56° ENE 04:52:03 10° SE
Cosmos 1892 Rocket 3.5 04:43:19 10° S 04:47:44 88° W 04:52:10 10° N
Meteor 1-31 Rocket 2.6 04:44:47 10° NNE 04:48:37 88° ESE 04:52:24 10° SSW
USA 267 3.3 04:43:24 10° NE 04:49:53 67° NNW 04:54:09 23° W
IDEFIX/ARIANE 42P 3.1 04:46:04 10° N 04:50:53 38° WNW 04:53:16 24° WSW
Cosmos 1943 Rocket 2.8 04:45:53 10° NNW 04:51:30 57° ENE 04:57:05 10° SE
Cosmos 1674 3.2 04:50:15 10° S 04:53:53 58° E 04:57:34 10° NNE
BREEZE-M DEB (TANK) 1.7 04:53:44 60° WNW 04:54:01 74° N 04:56:37 10° E
Cosmos 1606 Rocket 3.9 04:52:05 10° NNW 04:56:06 38° W 05:00:06 10° SSW
CZ-4B R/B 2.6 04:52:13 10° NNE 04:56:14 81° WNW 05:00:00 10° SSW
Cosmos 676 Rocket 4.0 04:53:54 12° SW 04:58:38 58° WNW 05:03:49 10° NNE
Cosmos 1484 Rocket 3.3 05:00:18 10° NNE 05:04:05 60° E 05:07:53 10° S
Cosmos 407 Rocket 4.3 05:03:46 23° W 05:05:52 30° NW 05:10:24 10° N
USA 116 4.2 05:03:49 10° SSE 05:07:18 53° ENE 05:10:30 10° N
GP-B 3.0 05:05:00 10° S 05:09:24 65° W 05:13:50 10° N
ALOS 3.6 05:06:24 10° NNE 05:10:53 44° E 05:15:20 10° S
SL-16 R/B 2.2 05:07:19 10° SW 05:12:57 68° WNW 05:18:39 10° NNE
Meteor 1-16 Rocket 4.5 05:11:18 10° NNW 05:16:12 39° W 05:21:10 10° SSW
MSX 4.3 05:11:10 10° N 05:16:24 38° WNW 05:21:37 10° SW
Cosmos 1812 Rocket 4.3 05:12:38 10° N 05:17:05 59° ENE 05:21:28 10° SSE
Meteor 1-24 Rocket 4.1 05:13:05 10° S 05:18:52 74° E 05:24:52 10° NNE
Cosmos 1300 3.9 05:15:59 10° N 05:19:41 46° ENE 05:23:22 10° SSE
Cosmos 1626 Rocket 3.7 05:17:29 10° S 05:21:47 75° E 05:26:07 10° NNE
RESURS DK-1 2.9 05:20:11 13° WSW 05:23:32 39° NW 05:27:27 10° NNE
ASTEX 1 4.1 05:18:48 10° SSE 05:23:35 59° E 05:28:25 10° N
Cosmos 2228 4.0 05:20:33 10° NW 05:23:56 23° W 05:27:18 10° SW
Cosmos 2297 4.4 05:19:06 10° NW 05:24:10 32° WSW 05:29:11 10° SSW
USA 234 4.0 05:19:42 10° SSE 05:25:31 34° SW 05:31:09 11° WNW
Helios 1A Rocket 3.4 05:23:29 10° NNE 05:27:39 67° ESE 05:31:47 10° S
Meteor 2-17 Rocket 4.4 05:23:31 10° SSW 05:29:33 68° WNW 05:35:36 10° N
COSMO-SKYMED 1 2.7 05:26:23 10° S 05:30:38 54° W 05:34:56 10° NNW
Okean 1-7 Rocket 4.2 05:27:42 10° SW 05:31:46 34° WNW 05:35:55 10° N
Meteor PRIRODA 4.0 05:30:05 10° N 05:33:40 43° WNW 05:37:12 10° SW
NOSS 3-4 (A) 4.2 05:30:23 13° W 05:35:29 37° NNW 05:41:35 10° NE
NOSS 3-4 (C) 4.2 05:30:27 13° W 05:35:35 37° NNW 05:41:42 10° NE
Cosmos 2333 Rocket 4.0 05:33:37 10° WNW 05:36:35 14° NNW 05:39:36 10° N
Cosmos 1850 Rocket 4.0 05:32:13 10° SSW 05:37:21 67° WNW 05:42:33 10° NNE
SL-14 R/B 3.5 05:37:21 10° S 05:41:16 73° E 05:45:09 10° NNE
ATLAS 3B R/B 4.1 05:37:58 11° WNW 05:41:19 15° WSW 05:44:57 10° SW
Cosmos 44 Rocket 4.5 05:39:16 10° WNW 05:42:47 21° WSW 05:46:16 10° SSW
Cosmos 2218 Rocket 4.0 05:36:39 10° SSW 05:43:01 77° W 05:49:21 10° N
Cosmos 1943 4.1 05:39:25 10° S 05:44:57 55° ESE 05:50:30 10° NE
KORONAS-FOTON 4.2 05:42:41 10° SW 05:46:15 39° WNW 05:49:51 10° N
MOS 1-B 4.4 05:40:47 10° N 05:46:34 65° WNW 05:52:18 10° SSW
Cosmos 2219 Rocket 4.1 05:46:23 10° NW 05:48:34 12° NNW 05:50:45 10° N
CENTAUR R/B 4.5 05:44:52 10° WNW 05:49:31 16° WSW 05:54:17 10° SW
SJ-12 4.0 05:47:06 10° N 05:51:08 55° WNW 05:55:09 10° SSW
Cosmos-2242 3.9 05:50:55 10° N 05:55:07 53° ENE 05:59:17 10° SSE
Cosmos 1437 Rocket 3.9 05:52:22 10° WSW 05:55:23 22° WNW 05:58:25 10° NNW
ERBS 4.1 05:53:09 10° NW 05:55:44 20° N 05:58:21 10° NE
Cosmos 1602 Rocket 3.5 05:52:33 10° SSW 05:56:49 60° WNW 06:01:07 10° N
Cosmos 1758 Rocket 4.2 05:53:58 10° S 05:58:13 61° E 06:02:34 10° NNE
Cosmos 1726 3.9 05:57:26 10° NW 05:59:16 13° W 06:01:05 10° WSW
Cosmos 1727 Rocket 4.0 05:54:21 10° NNW 06:00:33 68° W 06:06:46 10° S
CZ-2C R/B 3.7 05:57:31 10° N 06:01:28 22° WNW 06:05:23 10° WSW
BREEZE-M DEB (TANK) 4.4 05:39:33 10° W 06:01:29 85° N 06:06:12 10° E
